Showing default

EUTE 65W, 41382

Orbit data source: Space-Track

EUTE 65W, 41382 is a payload satellite owned by EutelsatSA (FR) in GEO that was launched on Wed, 09 Mar 2016 UTC via an ARIANE 5ECA launch vehicle from the French Guiana (FRGUI). Payload-class satellites include a variety of spacecraft equipped with specific instruments for various scientific and technological missions. These include communications satellites like Starlink; space stations such as the ISS; scientific satellites like the Hubble; Earth observation satellites from companies like Planet Labs, Umbra, and HawkEye 360; GPS; miniature CubeSats for education and research; and military/defense satellites.

Loading next visibility...
Identifier
41382, 2016-014A
Orbit
GEO
Country
Flag of UnknownUnknown / EUTE
Related business
Manufacturer
SS/Loral (MDA)
Mission
Operational Commercial Communications
Bus & Motor
SSL-1300, R-4D?
Mass
6,564 kg wet, ~3,500 kg dry
Launch date (UTC)
2016-03-09 (10 years ago)
Launch vehicle
ARIANE 5ECA
Launch site
French Guiana (FRGUI)
Object type
Payload
Rocket body
Debris
Shape & HBR
Box + 2 Pan, 13.0 m
Radar Cross Section
49.949 m², Large (>1 m²)

Expand to show TLE details & history
Last TLE update: 7 hours ago

TLE from 7 hours ago
0 EUTE 65W
1 41382U 16014A   26037.39904257 -.00000275  00000-0  00000+0 0  9991
2 41382   0.0549 330.5909 0002280 346.7705 257.6089  1.00271606 36224
Epoch: 2026-02-06T09:34Z
TLE epoch observation values (Epoch: 2026-02-06T09:34:37.278Z)
Latitude
-0.02486°
Longitude
-65.21642°
Altitude
35,788.207 km
Speed
3.075 km/s
True Right ascension
14h 19m 54s
True Declination
0° 01' 29"
Sunlit
Object was in daylight at epoch
Visualization orbit readout
Latitude
Unknown
Longitude
Unknown
Altitude
Unknown
Speed
Unknown
Apparent Right ascension
Unknown
Apparent Declination
Unknown
Sunlit
N/A
Visualization observer readout
Local Sidereal Time
18:35:02
Azimuth
Unknown
Elevation
Unknown
Doppler factor
Unknown
Orbital elements
Apogee altitude
35,797.329 km
Perigee altitude
35,778.102 km
Semi-major axis
42,165.853 km
Eccentricity
0.00023
Inclination
0.0549°
RAAN
330.5909°
Arg. of periapsis
346.7705°
True anomaly
257.58338°
Mean anomaly
257.6089°
Eccentric anomaly
257.59614°
Mean motion
0.25067 °/min
Orbital period
1,436.15 mins
BSTAR
0
Loading maneuver chart data...
Computing Atmospheric mass density...
Loading historical data...
Loading historical data...
Loading historical data...
Loading historical data...
Loading historical data...
Loading historical data...
Loading historical data...
Other satellites on launch #14 in the year 2016 (2016-03-09 UTC)

Documentation

Showing up to 5 results
|